Location: Ash Observatory
(39.7321°N, 75.2004°W)
Time: 15:16:30
(UTC-04:00)

Envisat - Visible Passes

Search period start: 24 March 2019 00:00
Search period end: 03 April 2019 00:00
Orbit: 764 x 766 km, 98.2° (Epoch: 24 March)

Date Brightness Start Highest point End Pass type
(mag) Time Alt. Az. Time Alt. Az. Time Alt. Az.
24 Mar 4.0 20:04:26 10° S 20:09:20 49° W 20:14:17 10° NNW visible
25 Mar 6.1 21:10:12 10° WSW 21:12:06 12° W 21:14:01 10° WNW visible
26 Mar 5.1 20:30:42 10° SSW 20:34:59 28° W 20:39:20 10° NW visible
27 Mar 3.6 19:53:04 10° S 19:58:06 63° W 20:03:09 10° NNW visible
28 Mar 5.9 20:57:46 10° SW 21:00:45 16° W 21:03:46 10° NW visible
29 Mar 4.7 20:19:07 10° SSW 20:23:43 35° W 20:28:22 10° NNW visible
30 Mar 3.2 19:41:48 10° S 19:46:52 81° WSW 19:51:59 10° NNW visible
31 Mar 5.7 20:45:46 10° SW 20:49:26 20° W 20:53:07 10° NW visible
01 Apr 4.3 20:07:37 10° S 20:12:27 45° W 20:17:19 10° NNW visible
02 Apr 6.2 21:14:07 10° WSW 21:15:15 11° W 21:16:23 10° WNW visible
